Probability
0 0 1 2 2 2 1 0 0 0 0 0 0 1 2 3 2 4 7 14 24 31 33 34 35 30 21 13 11 10 7 5 6 6 6 5 6 6 6 7 6 5 4 4 3 3 2 1 1
0 1 2 2 1 1 0 0 0 0 0 0 0 1 3 3 4 5 7 12 22 30 33 35 36 32 24 16 13 12 9 6 6 7 6 6 6 6 6 7 7 6 5 4 3 3 3 2 2
0 1 2 2 1 0 0 0 0 0 0 0 1 2 4 5 6 6 7 13 22 29 33 35 36 33 27 22 17 14 11 8 7 8 8 7 6 6 6 7 7 7 6 5 5 5 4 3 3
0 1 2 1 0 0 0 0 0 0 0 0 1 4 7 8 7 7 8 14 23 29 31 33 35 33 28 24 19 15 12 10 8 8 8 7 6 6 6 6 6 6 7 8 7 6 4 3 2
1 2 2 1 0 0 0 0 0 0 0 0 2 5 8 9 9 8 8 14 23 28 29 30 32 31 26 22 19 15 12 11 10 9 7 6 6 7 7 5 4 5 7 8 7 5 4 2 1
1 3 2 1 0 0 0 0 0 0 0 1 3 7 8 9 9 8 8 13 22 26 25 26 29 29 25 21 19 16 13 12 12 10 7 6 7 8 7 4 2 3 5 5 4 4 3 2 1
1 1 1 0 0 0 0 0 0 0 0 1 3 7 8 9 9 9 9 12 19 23 23 23 25 26 24 22 19 16 14 13 12 10 8 7 7 7 6 4 2 2 2 3 3 3 3 2 1
0 0 0 0 0 0 0 1 0 0 0 1 3 6 8 10 10 9 10 13 17 20 20 21 23 23 22 20 17 15 14 13 11 9 7 6 6 6 6 5 3 2 2 2 3 3 3 2 1
0 0 0 0 0 0 0 0 0 0 0 2 4 6 8 10 10 10 12 14 17 18 18 20 22 21 20 18 15 15 14 12 10 8 7 5 4 5 5 4 3 2 1 2 3 3 3 2 1
0 0 0 0 0 0 0 0 0 0 1 3 6 6 7 8 9 9 10 13 15 17 17 19 21 20 19 16 14 14 13 11 10 8 7 5 4 3 2 1 1 1 0 1 3 3 3 1 0
0 0 0 0 0 0 0 0 0 0 0 2 5 6 5 6 6 5 5 8 12 14 16 18 21 20 18 14 11 12 12 11 10 9 8 6 5 3 1 0 0 0 0 1 2 3 2 1 0
0 0 0 0 0 0 0 0 0 0 0 1 4 5 3 2 2 2 3 5 8 11 14 17 20 20 17 11 9 10 10 10 10 10 9 8 6 4 2 1 0 0 0 1 2 2 1 0 0
0 0 0 0 0 0 0 0 0 0 0 1 4 5 3 1 1 2 2 4 6 9 12 16 18 19 16 12 9 8 8 8 8 9 9 9 7 6 4 2 1 0 0 0 1 2 1 0 0
0 0 0 0 0 0 0 0 0 0 0 1 5 6 4 3 3 3 3 4 6 7 10 13 15 15 14 13 10 9 8 7 7 8 8 8 8 7 6 4 3 1 1 1 1 1 1 0 0
0 0 0 0 0 0 0 0 0 0 0 2 5 6 5 5 4 3 3 5 6 7 8 11 12 11 12 13 11 10 9 8 9 9 8 8 8 7 6 6 4 3 2 2 1 0 0 0 0
0 0 0 0 0 0 0 0 0 0 0 1 4 5 5 4 4 3 3 5 6 6 8 10 11 10 11 13 12 10 10 9 10 11 9 8 7 7 6 6 5 3 2 2 1 0 0 0 0
0 0 0 0 0 0 0 0 0 0 0 1 3 4 4 4 3 3 3 4 6 6 8 10 10 9 11 12 12 10 10 9 9 9 8 8 8 7 6 6 4 2 1 1 0 0 0 0 0
0 0 0 0 0 0 0 0 0 0 0 0 1 3 4 4 3 3 3 3 4 5 6 8 8 9 9 10 10 9 8 7 6 6 6 7 6 5 4 4 3 1 0 0 0 0 0 0 0
0 0 0 0 0 0 0 0 0 0 0 0 0 2 3 3 3 3 3 2 2 3 4 5 6 7 8 8 7 6 5 3 3 3 5 5 4 4 3 3 1 0 0 0 0 0 0 0 0
0 0 0 0 0 0 0 0 0 0 0 0 0 0 1 2 3 3 2 1 1 1 1 2 3 4 5 6 5 4 3 1 0 1 3 4 3 3 3 2 1 0 0 0 0 0 0 0 0
0 0 0 0 0 0 0 0 0 0 0 0 0 0 0 0 1 1 1 1 0 0 0 0 1 2 3 4 4 4 2 1 0 1 2 3 3 3 3 1 0 0 0 0 0 0 0 0 0
0 0 0 0 0 0 0 0 0 0 0 0 0 0 0 0 0 0 0 0 0 0 0 0 0 1 2 3 4 4 3 1 0 1 2 2 2 2 2 1 0 0 0 0 0 0 0 0 0
0 0 0 0 0 0 0 0 0 0 0 0 0 0 0 0 0 0 0 0 0 0 0 0 0 0 1 2 4 4 3 2 1 1 1 1 1 1 1 0 0 0 0 0 0 0 0 0 0
0 0 0 0 0 0 0 0 0 0 0 0 0 0 0 0 0 0 0 0 0 0 0 0 0 0 0 1 3 4 4 2 1 0 0 0 0 0 0 0 0 0 0 0 0 0 0 0 0
0 0 0 0 0 0 0 0 0 0 0 0 0 0 0 0 0 0 0 0 0 0 0 0 0 0 0 1 3 5 3 1 0 0 0 0 0 0 0 0 0 0 0 0 0 0 0 0 0
0 0 0 0 0 0 0 0 0 0 0 0 0 0 0 0 0 0 0 0 0 0 0 0 0 0 0 1 2 4 3 1 0 0 0 0 0 0 0 0 0 0 0 0 0 0 0 0 0
0 0 0 0 0 0 0 0 0 0 0 0 0 0 0 0 0 0 0 0 0 0 0 0 0 0 0 1 2 3 3 2 0 0 0 0 0 0 0 0 0 0 0 0 0 0 0 0 0
0 0 0 0 0 0 0 0 0 0 0 0 0 0 0 0 0 0 0 0 0 0 0 0 0 0 0 1 2 3 2 1 0 0 0 0 0 0 0 0 0 0 0 0 0 0 0 0 0
0 0 0 0 0 0 0 0 0 0 0 0 0 0 0 0 0 0 0 0 0 0 0 0 0 0 0 0 1 2 1 0 0 0 0 0 0 0 0 0 0 0 0 0 0 0 0 0 0
0 0 0 0 0 0 0 0 0 0 0 0 0 0 0 0 0 0 0 0 0 0 0 1 1 1 0 0 0 1 0 0 0 1 1 1 0 0 0 0 0 0 0 0 0 0 0 0 0
Wind_Speed
13 10 6 2 3 5 8 6 5 1 1 2 4 3 4 4 4 5 3 4 7 9 10 11 9 10 10 10 10 9 10 9 9 9 9 9 9 10 10 10 11 11 11 11 11 12 13 13 13
10 8 4 3 4 6 7 7 5 1 2 3 2 3 3 3 5 6 3 3 6 8 10 10 10 10 10 10 9 9 9 9 9 9 9 9 9 9 9 10 10 11 11 11 11 11 12 12 11
10 6 3 3 5 7 5 2 2 2 3 2 1 2 3 3 4 4 3 4 6 8 8 10 10 10 10 10 9 9 9 9 9 8 8 8 8 9 9 9 10 10 10 11 11 11 11 11 10
5 2 3 5 9 7 5 2 1 0 1 0 1 1 3 4 3 4 4 5 7 7 8 9 10 10 10 10 10 9 9 9 8 8 8 8 8 8 9 9 9 10 11 11 11 11 11 10 9
3 3 4 6 9 7 4 2 1 1 2 1 0 0 3 3 5 6 5 5 6 7 7 8 9 10 9 9 9 9 9 8 8 8 8 8 8 8 9 9 9 10 11 11 11 10 10 9 9
2 3 4 7 8 6 5 4 3 2 2 0 0 1 2 3 5 5 5 5 5 7 7 7 8 8 8 8 8 8 8 8 8 8 8 8 8 8 8 9 9 9 10 10 10 9 9 8 8
2 3 5 6 6 5 5 3 1 1 2 1 2 0 3 3 4 4 5 5 5 6 6 5 6 6 6 6 7 8 8 7 8 7 7 7 8 8 8 9 8 8 9 9 9 9 8 8 6
2 2 5 6 6 5 3 2 2 3 2 3 4 1 2 3 3 3 5 5 5 5 5 4 4 5 4 4 6 6 7 7 7 7 6 7 7 7 7 8 8 8 8 8 8 8 8 7 6
2 2 4 4 4 3 1 2 2 3 3 3 3 3 2 3 3 3 4 4 4 4 3 3 4 4 3 3 5 5 6 6 7 6 6 5 4 4 4 6 7 7 7 7 7 7 6 6 4
2 3 4 2 4 3 3 3 3 1 2 2 2 3 2 3 3 2 2 2 2 2 2 2 3 3 3 3 3 3 3 4 3 3 4 2 2 3 4 6 6 6 6 6 6 6 5 3 1
2 3 3 4 5 5 3 3 2 2 3 2 2 1 1 2 1 1 1 1 1 1 2 2 3 3 2 2 2 1 2 2 3 3 2 2 2 2 3 2 3 4 3 2 4 3 2 2 1
3 4 5 5 4 4 3 3 3 2 3 3 2 1 0 0 0 1 1 0 1 1 1 1 2 3 2 2 2 2 2 2 2 3 2 2 2 2 2 2 2 2 2 2 2 2 2 2 2
5 4 4 4 4 4 3 4 4 4 4 4 2 2 2 2 2 2 1 1 1 1 1 0 2 3 3 2 2 2 2 2 2 2 2 2 2 2 2 2 2 2 2 2 2 2 2 1 1
2 3 4 5 5 4 4 6 5 5 4 5 4 4 4 4 2 2 1 1 1 1 1 1 2 2 3 2 2 2 1 2 2 2 2 2 2 2 2 2 2 1 1 1 2 2 2 1 1
3 4 5 5 5 3 3 6 7 7 4 5 4 4 3 2 2 2 2 1 1 1 1 1 2 2 2 3 2 1 1 2 2 2 2 2 3 3 2 2 1 1 1 1 1 1 1 1 1
4 4 3 3 3 3 3 7 4 3 3 4 4 3 3 3 2 2 2 1 1 1 1 1 0 2 2 2 2 2 1 1 1 1 2 2 2 2 2 2 2 1 1 1 1 1 1 1 1
4 3 4 2 2 2 4 6 3 2 3 4 4 3 3 3 2 2 2 2 1 1 1 1 1 1 1 2 2 2 2 1 1 1 1 2 2 2 2 2 2 1 1 1 1 1 1 1 0
2 4 5 4 2 4 6 8 6 5 5 6 4 4 3 3 3 2 1 2 2 2 2 2 2 1 1 1 2 2 1 1 1 1 1 2 2 2 2 2 2 2 1 1 1 2 1 1 1
5 6 7 6 4 5 7 10 9 6 6 6 5 4 4 3 2 2 2 2 1 1 2 2 2 2 1 2 2 2 2 1 1 1 1 1 1 2 2 2 2 1 1 2 2 2 2 1 1
6 7 7 5 3 4 7 11 9 6 8 7 6 5 4 3 2 2 2 2 1 1 2 2 2 2 2 2 2 2 2 2 1 1 1 1 1 1 1 2 2 2 1 1 2 2 2 1 1
6 6 5 6 7 6 7 9 7 5 6 6 4 3 4 4 3 2 2 1 1 1 2 2 2 2 2 3 2 2 1 1 1 1 1 1 1 2 1 2 2 2 2 2 2 2 3 3 2
5 4 5 6 5 4 3 6 4 4 4 4 3 3 4 3 3 2 2 2 2 2 1 2 2 2 2 2 3 4 3 3 3 2 2 2 1 1 2 2 2 2 2 2 2 2 1 3 2
3 5 5 6 5 5 5 5 6 3 4 4 3 3 3 2 2 2 2 2 2 2 2 2 2 2 2 2 3 4 3 3 3 2 3 2 2 2 2 2 2 2 2 2 2 1 1 1 2
4 4 4 3 2 5 6 5 5 2 3 2 2 2 2 2 1 1 1 1 1 1 2 2 3 2 2 2 4 4 5 4 4 4 3 2 2 2 2 2 2 2 2 2 2 2 2 2 2
2 2 2 1 2 5 2 3 5 2 2 2 2 1 0 1 1 0 1 1 1 1 2 3 2 2 2 2 3 4 5 5 6 5 4 3 2 2 3 2 2 2 2 2 2 2 2 3 2
2 1 1 2 3 3 2 4 3 1 4 4 4 3 3 2 2 1 0 1 1 2 2 2 3 2 2 3 3 3 4 3 3 4 4 4 3 3 3 3 3 3 3 2 2 2 2 2 3
2 1 1 1 3 3 5 4 2 3 5 5 4 5 4 3 3 2 2 1 1 2 2 2 2 2 3 3 3 2 3 3 3 3 3 3 2 2 3 2 2 2 3 3 3 2 2 2 2
2 2 1 1 2 4 5 3 3 2 3 4 5 5 5 4 3 3 3 2 1 1 1 1 2 2 2 2 2 2 3 3 3 3 3 3 3 2 3 2 2 2 2 3 3 3 3 3 2
1 1 2 2 2 3 4 3 2 2 3 4 4 5 5 4 3 3 2 2 1 1 1 1 2 2 1 1 2 2 2 2 2 2 2 2 3 3 3 3 2 2 2 2 2 3 3 3 3
1 2 2 2 3 3 3 5 2 3 3 5 5 6 6 5 4 3 2 2 2 2 1 1 1 2 2 1 1 2 1 2 1 1 2 2 2 2 2 2 2 2 2 2 3 3 3 3 3
Wind_Direction
310 292 273 260 238 230 233 237 254 241 283 2 5 354 19 12 21 94 97 61 100 126 137 140 133 131 130 126 122 120 116 114 111 109 107 104 104 108 109 107 105 104 103 101 97 94 91 88 85
300 298 283 240 233 230 230 223 235 229 56 37 9 7 7 38 61 91 89 66 103 123 134 138 134 132 130 128 128 124 121 119 116 113 110 108 104 106 111 110 108 107 106 103 100 96 93 90 87
282 279 269 237 230 233 238 229 198 82 66 37 9 18 15 34 61 83 96 95 100 110 124 130 133 133 131 130 128 124 121 121 119 115 112 110 108 107 106 108 109 107 106 105 102 98 95 93 89
282 238 236 243 239 242 252 276 345 120 109 44 49 69 70 36 43 74 87 86 93 103 117 126 129 133 132 131 130 126 124 124 123 119 115 113 110 108 106 103 107 108 107 105 103 100 97 95 91
255 242 224 233 244 253 273 308 297 259 224 195 107 72 81 54 69 83 85 87 94 101 109 127 124 129 132 134 133 133 130 129 128 124 121 117 113 108 107 105 107 112 112 109 106 103 100 98 93
259 247 232 231 236 247 253 261 254 252 270 309 102 100 103 69 69 82 86 87 91 98 102 122 122 124 128 133 137 138 135 133 130 125 124 122 115 111 110 111 109 114 115 113 110 108 105 101 97
262 257 249 254 248 251 258 271 265 288 288 315 334 18 119 57 49 84 92 90 86 94 99 116 128 125 126 132 139 140 138 135 130 126 124 120 115 114 112 115 113 114 117 116 115 113 109 105 101
304 280 252 254 254 253 265 294 340 345 317 5 7 36 100 53 40 74 92 86 86 90 98 114 130 126 121 128 131 137 139 136 130 125 120 115 114 116 115 117 116 117 120 122 119 117 114 110 105
296 256 241 251 271 270 303 308 346 9 350 3 17 18 51 57 43 57 81 74 76 89 96 116 120 120 130 135 129 128 131 130 130 128 129 127 128 127 120 121 118 119 122 130 127 126 123 117 114
225 239 247 303 328 329 344 335 336 358 313 323 360 18 49 65 60 56 87 91 91 106 111 111 121 123 126 137 140 146 141 140 141 142 148 148 135 124 122 125 122 120 123 135 140 142 139 133 143
224 239 260 294 316 329 325 320 326 306 290 270 241 264 31 40 37 36 47 119 127 129 117 121 128 129 128 122 142 143 136 146 147 148 145 133 122 123 127 132 129 130 132 149 161 168 161 151 151
251 266 273 283 307 314 307 308 314 274 271 307 312 280 254 123 315 319 319 253 129 104 94 147 137 136 135 130 137 144 142 156 156 159 156 137 128 131 140 143 148 150 146 168 182 177 163 161 161
246 254 268 289 293 292 292 279 280 268 265 279 273 264 263 239 236 269 269 190 135 147 210 210 162 150 144 136 149 149 153 159 153 150 158 133 134 143 142 147 154 158 161 181 189 170 171 166 174
298 304 283 274 276 288 278 275 262 258 247 257 232 232 238 235 220 238 237 184 173 190 215 223 177 159 154 151 164 158 149 158 141 143 158 145 146 142 144 147 156 174 182 196 187 171 164 167 172
274 276 275 256 247 240 280 270 242 248 230 237 231 226 220 233 222 208 223 218 191 181 180 202 184 159 164 157 164 146 150 153 152 147 163 165 154 146 149 151 157 178 180 200 177 146 137 167 192
247 249 252 225 226 211 227 259 244 252 231 233 233 234 218 221 221 205 203 218 195 142 147 135 120 174 178 166 161 159 160 146 151 154 161 165 153 140 143 154 163 180 154 141 165 144 137 174 198
219 242 256 259 222 245 233 261 244 246 251 246 239 236 225 223 224 222 206 199 187 172 156 135 131 170 184 174 156 152 152 148 140 144 154 143 147 142 144 160 164 150 134 130 175 140 144 161 236
254 260 268 265 243 269 260 262 263 253 258 259 250 244 240 228 230 214 229 207 185 188 167 150 155 156 169 164 149 140 133 139 132 150 158 142 148 155 144 150 151 140 140 164 168 154 143 152 196
285 284 283 286 293 287 268 272 271 263 254 253 251 247 248 243 226 189 210 230 199 185 174 176 163 169 164 164 166 167 173 163 154 165 155 160 157 149 154 149 150 150 174 193 182 156 145 148 116
265 271 281 288 290 287 279 277 271 251 246 245 246 245 244 252 242 232 217 217 224 219 201 199 189 186 187 187 175 180 176 173 172 168 149 163 156 139 154 161 171 172 185 187 184 159 150 166 150
277 268 278 294 309 273 282 281 245 233 231 240 244 249 249 244 243 233 246 245 236 231 223 224 196 201 195 187 156 150 159 160 166 182 188 196 187 176 174 186 178 171 171 188 195 179 166 182 201
286 309 300 294 298 280 251 288 258 226 230 237 250 252 248 255 249 225 229 250 241 224 210 227 217 200 191 188 172 172 181 185 195 195 196 182 180 188 191 194 187 177 177 182 203 212 189 169 187
287 311 295 283 273 281 252 250 275 217 239 245 249 244 241 244 248 236 231 239 236 206 199 213 231 225 187 195 194 184 196 197 181 178 191 188 180 187 194 183 183 182 180 188 191 191 190 186 186
306 299 278 262 254 265 238 219 272 249 249 269 273 248 223 221 239 261 291 295 264 214 202 211 213 226 196 190 206 195 197 196 184 186 192 193 185 184 191 189 180 184 186 192 195 188 184 187 189
301 347 343 311 237 248 230 225 251 283 0 8 331 342 47 70 28 306 323 331 302 258 221 210 211 217 204 201 209 209 202 199 195 190 189 192 197 196 200 199 188 185 200 196 190 187 192 188 188
265 238 195 264 271 300 302 247 254 40 33 27 27 30 23 19 21 353 311 291 287 275 240 213 217 219 212 216 217 212 204 194 200 195 191 198 201 197 194 192 188 192 196 203 189 187 199 191 191
288 242 260 278 280 272 255 251 259 6 10 11 7 9 359 356 3 360 351 324 291 268 258 230 229 219 219 223 219 219 208 198 204 195 187 196 191 186 182 185 187 194 196 197 191 189 203 193 196
276 312 323 227 277 276 268 255 288 336 338 347 351 348 345 354 357 355 345 334 293 270 268 236 242 231 226 217 220 228 207 199 199 193 188 184 175 172 174 179 185 195 199 199 195 184 192 192 197
214 237 239 252 256 266 286 281 24 15 7 355 342 338 339 348 347 344 340 344 323 320 334 288 278 273 244 217 218 204 202 185 192 191 180 177 169 169 172 179 187 190 192 197 193 195 188 196 202
293 272 206 225 263 251 266 273 24 36 27 9 357 347 346 352 354 355 356 358 349 337 310 306 290 290 274 221 197 185 177 164 183 183 182 171 169 169 176 176 178 195 198 192 199 207 203 198 201